TimeMST,TemperatureF,Dew PointF,Humidity,Sea Level PressureIn,VisibilityMPH,Wind Direction,Wind SpeedMPH,Gust SpeedMPH,PrecipitationIn,Events,Conditions,WindDirDegrees,DateUTC
12:16 AM,16.0,13.1,88,30.19,10.0,Calm,Calm,-,N/A,,Clear,0,2013-02-16 07:16:00
12:36 AM,16.9,13.8,88,30.18,10.0,Calm,Calm,-,N/A,,Clear,0,2013-02-16 07:36:00
12:56 AM,16.9,14.2,89,30.18,10.0,Calm,Calm,-,N/A,,Clear,0,2013-02-16 07:56:00
1:16 AM,16.0,13.5,90,30.18,10.0,Calm,Calm,-,N/A,,Clear,0,2013-02-16 08:16:00
1:36 AM,17.1,14.0,88,30.17,10.0,SSW,5.8,-,N/A,,Clear,210,2013-02-16 08:36:00
1:56 AM,18.5,14.9,86,30.16,10.0,Calm,Calm,-,N/A,,Clear,0,2013-02-16 08:56:00
2:16 AM,19.0,15.4,86,30.16,10.0,SSW,5.8,-,N/A,,Clear,200,2013-02-16 09:16:00
2:36 AM,18.9,15.4,87,30.15,10.0,Calm,Calm,-,N/A,,Clear,0,2013-02-16 09:36:00
2:56 AM,20.1,15.6,83,30.14,10.0,SSW,3.5,-,N/A,,Clear,210,2013-02-16 09:56:00
3:16 AM,19.6,14.5,81,30.14,10.0,Calm,Calm,-,N/A,,Clear,0,2013-02-16 10:16:00
3:36 AM,20.1,14.7,80,30.14,10.0,Calm,Calm,-,N/A,,Clear,0,2013-02-16 10:36:00
3:56 AM,18.7,14.2,83,30.13,10.0,West,13.8,21.9,N/A,,Clear,280,2013-02-16 10:56:00
4:16 AM,36.5,13.5,39,30.13,10.0,NW,8.1,-,N/A,,Clear,310,2013-02-16 11:16:00
4:36 AM,36.0,12.4,38,30.13,10.0,NW,6.9,-,N/A,,Clear,310,2013-02-16 11:36:00
4:56 AM,36.5,11.3,35,30.12,10.0,WNW,6.9,-,N/A,,Clear,300,2013-02-16 11:56:00
5:16 AM,36.3,10.8,35,30.12,10.0,West,10.4,-,N/A,,Clear,280,2013-02-16 12:16:00
5:36 AM,39.7,10.4,30,30.11,10.0,WSW,5.8,20.7,N/A,,Clear,240,2013-02-16 12:36:00
5:56 AM,36.1,10.2,34,30.11,10.0,South,5.8,-,N/A,,Clear,190,2013-02-16 12:56:00
6:16 AM,35.1,10.6,36,30.11,10.0,South,4.6,-,N/A,,Clear,180,2013-02-16 13:16:00
6:36 AM,33.6,10.9,39,30.11,10.0,South,4.6,-,N/A,,Clear,170,2013-02-16 13:36:00
6:56 AM,34.7,10.4,37,30.11,10.0,Calm,Calm,-,N/A,,Clear,0,2013-02-16 13:56:00
7:16 AM,37.6,10.2,32,30.11,10.0,Calm,Calm,-,N/A,,Clear,0,2013-02-16 14:16:00
7:36 AM,39.7,11.1,31,30.11,10.0,West,6.9,-,N/A,,Clear,280,2013-02-16 14:36:00
7:56 AM,42.3,11.7,29,30.11,10.0,WNW,5.8,-,N/A,,Clear,290,2013-02-16 14:56:00
8:16 AM,45.5,10.0,24,30.11,10.0,NW,4.6,-,N/A,,Clear,320,2013-02-16 15:16:00
8:36 AM,46.9,9.5,22,30.11,10.0,WNW,10.4,-,N/A,,Clear,290,2013-02-16 15:36:00
8:56 AM,45.0,13.3,28,30.11,10.0,North,9.2,-,N/A,,Clear,360,2013-02-16 15:56:00
3:56 PM,57.2,7.0,13,30.03,10.0,West,18.4,-,N/A,,Clear,260,2013-02-16 22:56:00
4:16 PM,56.1,6.3,14,30.02,10.0,West,17.3,20.7,N/A,,Clear,280,2013-02-16 23:16:00
4:36 PM,55.4,5.9,14,30.02,10.0,West,11.5,-,N/A,,Clear,280,2013-02-16 23:36:00
4:56 PM,54.1,5.9,14,30.01,10.0,WSW,6.9,-,N/A,,Clear,250,2013-02-16 23:56:00
5:16 PM,52.2,7.5,17,30.02,10.0,WSW,6.9,-,N/A,,Clear,240,2013-02-17 00:16:00
5:36 PM,49.3,6.8,18,30.02,10.0,WSW,5.8,-,N/A,,Clear,250,2013-02-17 00:36:00
5:56 PM,46.2,4.5,18,30.01,10.0,WNW,8.1,-,N/A,,Clear,290,2013-02-17 00:56:00
6:16 PM,43.0,6.1,22,30.01,10.0,South,8.1,-,N/A,,Clear,190,2013-02-17 01:16:00
6:36 PM,40.5,7.3,26,30.01,10.0,SSW,3.5,-,N/A,,Clear,210,2013-02-17 01:36:00
6:56 PM,39.0,7.5,27,30.01,10.0,South,4.6,-,N/A,,Clear,190,2013-02-17 01:56:00
7:16 PM,37.2,7.5,29,30.01,10.0,Calm,Calm,-,N/A,,Clear,0,2013-02-17 02:16:00
7:36 PM,36.9,7.3,29,30.00,10.0,South,4.6,-,N/A,,Clear,190,2013-02-17 02:36:00
7:56 PM,37.2,7.7,29,30.00,10.0,SW,4.6,-,N/A,,Clear,220,2013-02-17 02:56:00
8:16 PM,35.2,8.2,33,29.99,10.0,SSW,4.6,-,N/A,,Clear,200,2013-02-17 03:16:00
8:36 PM,31.8,9.0,38,29.99,10.0,Calm,Calm,-,N/A,,Clear,0,2013-02-17 03:36:00
8:56 PM,31.3,9.5,40,29.99,10.0,Calm,Calm,-,N/A,,Clear,0,2013-02-17 03:56:00
9:16 PM,35.4,8.4,33,29.98,10.0,WSW,6.9,-,N/A,,Clear,240,2013-02-17 04:16:00
9:36 PM,44.2,7.5,22,29.98,10.0,SW,6.9,-,N/A,,Clear,230,2013-02-17 04:36:00
9:56 PM,41.4,8.2,26,29.98,10.0,SW,4.6,-,N/A,,Clear,220,2013-02-17 04:56:00
10:16 PM,39.0,7.7,27,29.97,10.0,West,5.8,-,N/A,,Clear,280,2013-02-17 05:16:00
10:36 PM,33.1,6.8,33,29.97,10.0,WNW,9.2,-,N/A,,Clear,290,2013-02-17 05:36:00
10:56 PM,37.8,7.9,29,29.96,10.0,WNW,11.5,-,N/A,,Clear,290,2013-02-17 05:56:00
11:16 PM,38.3,7.3,28,29.96,10.0,West,11.5,-,N/A,,Clear,280,2013-02-17 06:16:00
11:36 PM,38.5,7.7,28,29.94,10.0,NW,8.1,-,N/A,,Clear,320,2013-02-17 06:36:00
11:56 PM,44.2,5.9,21,29.94,10.0,Calm,Calm,-,N/A,,Clear,0,2013-02-17 06:56:00